Estación de Río Bueno

Ultimos registro cada 15 minutos 23
Estación Fecha / Hora Temperatura Humedad Lluvia Velocidad Dirección Radiación Presion
23 Río Bueno 10-05-2026 05:30 -0,4 96,6 0 0 220 0,6 1021,8
22 Río Bueno 10-05-2026 05:15 -0,2 96,6 0 0 220 0,6 1021,8
21 Río Bueno 10-05-2026 05:00 -0,4 96,5 0 0 220 0,6 1021,8
20 Río Bueno 10-05-2026 04:45 0,2 96,7 0 0 220 0,6 1021,7
19 Río Bueno 10-05-2026 04:30 -0,2 96,4 0 0 220 0,6 1021,9
18 Río Bueno 10-05-2026 04:15 0 96,4 0 0 219 0,6 1021,8
17 Río Bueno 10-05-2026 04:00 0,5 96,6 0 0 219 0,6 1021,8
16 Río Bueno 10-05-2026 03:45 0,3 96,4 0 0 220 0,6 1021,9
15 Río Bueno 10-05-2026 03:30 1,3 96,8 0 0,3 220 0,6 1021,7
14 Río Bueno 10-05-2026 03:15 0,8 96,4 0 0,3 219 0,6 1021,8
13 Río Bueno 10-05-2026 03:00 0,3 96,1 0 0 219 0,6 1022
12 Río Bueno 10-05-2026 02:45 0,5 96,1 0 0 220 0,6 1022,1
11 Río Bueno 10-05-2026 02:30 1 96,3 0 0 220 0,6 1022,2
10 Río Bueno 10-05-2026 02:15 1,4 96,3 0 0 219 0,6 1022,3
9 Río Bueno 10-05-2026 02:00 0,9 96 0 0 220 0,6 1022,3
8 Río Bueno 10-05-2026 01:45 1,4 96,1 0 0 220 0,6 1022,3
7 Río Bueno 10-05-2026 01:30 0,9 95,9 0 0 220 0,6 1022,4
6 Río Bueno 10-05-2026 01:15 1,1 95,8 0 0 219 0,6 1022,3
5 Río Bueno 10-05-2026 01:00 1,7 95,9 0 0 219 0,6 1022,3
4 Río Bueno 10-05-2026 00:45 2,9 96,6 0 0 219 0,6 1022,6
3 Río Bueno 10-05-2026 00:30 1,5 95,5 0 0 220 0,6 1022,8
2 Río Bueno 10-05-2026 00:15 2,3 95,7 0 0 219 0,6 1022,8
1 Río Bueno 10-05-2026 00:00 2,2 95,5 0 0 219 0,6 1022,9